Location: Assche-ter-Heiden
(50.9174°N, 4.1574°E)
Time: 22:24:30
(UTC+00:00)

Cosmos 923 Rocket - Pass Details

Date: 20 January 2020
Orbit: 757 x 786 km, 74.0° (Epoch: 17 February)

Event Time Altitude Azimuth Distance (km) Brightness Sun altitude
Rises 06:52:48 0° 227° (SW) 3,232 7.0 -6.8°
Reaches altitude 10° 06:55:18 10° 236° (SW) 2,314 6.2 -6.5°
Maximum altitude 07:00:13 39° 304° (NW) 1,159 4.5 -5.8°
Drops below altitude 10° 07:05:12 10° 14° (NNE) 2,345 6.4 -5.0°
Sets 07:07:46 0° 22° (NNE) 3,281 7.2 -4.7°
